Wind_Speed
11 11 12 12 12 12 13 13 14 15 16 17 17 16 16 16 16 16 15 15 15 15 15 15 15 15 16 17 17 18 18 19 19 19 19 19 19 19 20 20 21 21 22
11 12 12 13 13 13 13 15 15 16 18 18 18 18 17 17 17 17 16 16 16 16 16 16 16 17 17 18 18 18 19 19 20 20 20 20 20 20 21 21 21 22 23
12 12 13 14 15 15 15 16 17 18 18 19 19 19 18 18 18 18 18 18 17 17 17 17 17 18 18 19 19 20 20 21 21 21 21 21 21 22 22 22 22 22 23
12 13 13 15 16 16 16 17 18 18 19 19 19 19 19 19 19 19 19 19 19 19 18 18 19 19 19 20 20 21 21 22 21 22 22 22 22 23 23 23 23 24 25
13 14 15 15 16 17 18 18 19 19 20 20 20 20 20 20 21 21 21 21 20 20 20 20 20 20 20 20 21 22 22 22 23 23 23 24 24 24 25 25 25 25 26
15 15 16 16 17 18 18 19 20 20 21 22 21 21 22 22 22 23 22 22 21 21 21 21 21 21 22 22 22 23 24 24 24 25 25 26 26 27 26 26 27 26 26
17 17 17 18 18 19 20 20 21 22 22 23 23 23 23 23 23 24 24 23 23 22 22 22 22 23 23 23 24 25 26 26 26 26 27 27 27 27 27 27 28 28 28
19 19 19 20 20 21 21 22 22 23 24 25 25 24 24 24 24 25 25 25 24 24 24 24 25 25 25 26 26 26 26 27 27 27 28 28 28 28 28 28 28 28 28
21 22 22 22 22 23 23 23 24 25 26 26 26 26 26 26 27 27 27 27 26 25 25 26 26 27 27 27 28 28 28 28 27 27 28 28 28 29 29 28 28 29 29
24 24 24 24 25 25 26 26 27 27 27 27 28 28 28 29 29 29 29 28 28 27 27 28 28 28 28 28 29 29 28 28 28 28 28 29 29 28 28 28 29 29 30
26 26 26 26 27 27 28 28 28 29 29 29 29 30 30 30 30 30 30 30 30 29 29 29 28 28 28 30 29 29 28 29 28 29 29 28 28 28 28 29 30 30 30
27 28 27 28 28 29 29 29 29 30 31 32 32 32 32 32 32 31 31 31 31 31 31 30 30 29 30 30 29 29 29 29 29 29 29 29 29 30 30 30 31 31 30
29 29 29 30 30 30 30 30 31 32 33 33 33 33 32 33 32 32 32 32 32 32 31 31 31 30 30 30 30 30 29 29 29 29 29 30 31 31 32 31 31 30 30
30 31 31 31 32 32 33 33 33 33 34 34 34 34 33 33 33 34 34 34 33 33 33 33 32 32 31 30 31 31 31 30 30 30 30 31 32 32 32 32 32 31 30
33 33 33 34 34 34 34 35 35 36 35 35 35 35 35 35 35 35 35 34 34 34 34 34 33 33 32 31 31 31 32 31 31 31 31 31 31 31 32 32 31 31 30
35 35 36 36 36 36 37 38 38 38 37 37 37 37 37 37 37 37 36 35 35 34 34 34 34 33 33 32 32 32 32 31 31 31 31 31 31 31 32 32 31 31 31
36 36 36 37 38 38 39 39 39 39 39 39 38 38 38 38 37 37 36 35 35 34 34 34 34 34 34 34 33 33 32 32 32 32 32 32 32 32 32 32 32 32 31
37 37 37 38 39 39 39 40 39 39 38 38 39 39 39 38 38 37 36 36 35 35 35 35 35 35 35 34 34 33 33 33 33 32 33 33 33 32 32 32 32 32 31
37 37 38 38 38 39 39 39 39 39 39 39 39 38 39 38 38 37 37 36 36 36 36 35 35 35 35 35 34 33 33 33 32 32 32 32 32 32 32 32 32 31 31
37 38 38 38 38 39 39 39 40 40 39 39 38 37 37 37 37 37 37 37 36 36 35 35 35 35 34 35 34 33 32 32 31 31 30 31 32 32 32 31 31 31 30
36 37 37 38 38 38 38 38 37 37 37 37 36 36 36 37 37 37 37 37 36 35 35 35 35 34 34 34 33 32 31 31 31 31 31 31 31 32 31 31 31 31 30
37 37 37 36 36 36 36 36 36 36 36 36 36 37 37 37 37 37 37 37 36 36 36 36 35 35 35 34 34 33 32 32 32 31 31 32 32 31 31 31 31 31 30
36 35 35 35 34 34 35 36 36 36 36 36 36 36 37 37 37 37 37 36 36 36 36 36 36 36 35 35 34 33 33 33 32 32 32 31 31 31 30 30 31 31 31
35 35 35 34 34 34 35 35 36 36 36 35 35 36 37 36 36 36 36 36 36 36 36 36 36 35 35 35 33 32 32 32 32 33 32 32 31 31 31 31 31 32 32
34 33 33 32 33 34 34 35 35 35 35 35 36 36 37 37 36 36 36 37 36 36 35 35 35 35 35 34 33 32 32 32 32 32 32 31 31 31 31 31 31 32 32
32 32 32 32 32 33 33 34 34 34 34 35 36 36 37 37 37 37 37 36 36 35 35 34 35 34 34 33 31 31 31 31 31 32 32 31 30 31 31 32 32 32 32
Wind_Direction
357 358 357 356 355 352 352 353 353 354 351 349 345 340 335 333 333 331 327 324 318 313 308 304 301 302 302 301 300 299 298 298 297 296 296 296 296 297 297 297 296 296 295
347 350 351 349 347 347 345 347 348 347 346 347 345 340 335 333 331 330 326 324 320 316 312 307 303 302 302 302 301 301 300 301 300 298 297 297 297 298 297 297 296 295 294
339 340 340 339 339 341 342 340 341 342 343 345 345 343 338 335 333 330 327 324 321 318 313 309 305 303 303 302 301 300 300 300 300 299 298 298 299 299 297 297 297 297 297
333 332 331 332 333 333 333 335 336 338 339 341 341 340 339 338 335 332 329 326 323 320 315 310 307 305 303 302 302 301 299 298 298 298 299 299 299 299 298 298 298 297 297
325 324 324 325 327 328 328 329 330 332 333 335 336 336 335 334 333 331 327 324 323 320 316 312 309 308 304 302 302 301 299 297 297 296 297 297 297 297 298 298 298 298 296
314 315 317 319 320 322 323 325 326 327 328 329 330 330 329 328 328 329 329 326 323 320 317 315 312 309 307 304 303 301 299 296 295 296 296 296 296 297 297 298 298 297 296
306 306 309 312 314 315 315 317 320 323 324 325 325 325 326 325 324 325 326 325 321 318 316 314 313 311 308 307 305 302 301 299 296 296 296 296 297 297 297 297 296 296 297
299 301 304 305 307 309 310 312 314 317 319 320 319 321 321 321 321 322 323 324 321 317 314 313 312 310 308 306 305 303 302 301 299 298 298 297 297 296 297 297 296 296 295
291 294 297 300 303 305 307 309 311 312 314 316 317 317 316 316 318 318 318 319 319 316 313 311 310 309 308 307 305 302 301 299 299 299 298 297 297 296 295 296 297 297 297
287 289 293 297 298 299 302 305 308 307 308 310 312 312 312 312 313 314 315 315 316 316 314 311 310 308 307 307 305 304 301 299 300 300 299 300 299 298 297 297 297 297 297
285 286 289 292 296 297 299 301 303 304 305 306 308 309 308 309 310 312 312 312 312 313 312 310 309 308 308 308 305 303 301 300 301 300 299 300 300 300 299 299 299 298 298
282 284 287 291 293 295 297 300 301 303 304 304 305 306 306 307 307 308 309 308 308 309 310 310 308 307 308 309 306 303 301 300 301 301 300 300 300 300 301 301 301 301 299
279 282 285 288 292 295 298 300 301 303 303 303 303 304 305 307 308 308 308 305 304 305 306 307 307 308 309 309 307 304 302 301 300 300 300 300 300 300 300 300 300 300 300
276 279 282 285 288 291 294 297 298 299 301 302 302 304 306 307 306 308 307 305 304 303 303 303 303 305 306 307 306 305 302 300 299 298 297 298 299 299 299 300 300 300 300
274 277 280 283 286 288 291 293 296 298 299 300 302 303 304 306 307 307 305 304 303 302 302 302 302 302 303 303 303 303 302 300 299 299 299 300 300 301 301 300 300 300 299
272 275 278 281 283 286 288 291 294 296 298 300 301 302 303 303 305 305 304 302 301 301 301 301 302 302 302 302 301 301 302 302 301 301 301 301 301 301 301 301 300 300 299
272 274 277 279 281 285 287 288 290 293 295 298 299 300 301 301 302 303 303 302 300 301 302 302 301 300 301 300 300 300 301 302 301 301 301 301 302 301 301 301 300 300 299
272 274 277 279 281 284 286 288 289 291 294 296 297 297 298 298 298 300 301 301 301 301 301 302 301 300 300 300 300 300 300 300 300 300 301 300 300 300 300 301 300 300 299
274 277 280 281 283 285 286 288 289 291 293 294 295 296 296 296 296 298 299 300 299 299 299 299 299 299 299 299 299 299 299 299 299 300 301 301 301 301 301 301 301 300 299
275 277 279 281 283 284 286 288 289 291 292 293 294 294 295 295 296 297 298 298 298 298 298 298 299 300 299 299 298 299 299 299 300 301 300 300 301 301 301 301 301 300 299
274 277 280 281 283 285 287 288 290 291 292 293 293 293 293 294 295 296 297 297 296 296 297 297 297 297 297 297 296 297 298 298 298 299 299 299 300 301 301 301 301 300 300
274 276 279 282 283 285 286 287 290 291 292 292 294 294 294 295 295 296 297 297 296 295 296 297 296 295 295 295 295 295 295 297 298 299 299 299 300 300 301 301 301 301 300
276 279 281 282 283 284 286 287 289 290 291 293 294 295 295 295 295 296 296 297 296 296 297 297 296 295 294 295 294 294 295 296 297 298 299 299 300 301 301 301 299 299 298
279 281 282 283 283 285 286 287 289 290 292 294 295 296 295 296 296 296 296 296 296 296 296 296 296 295 294 294 293 293 295 295 296 296 297 298 300 300 301 300 299 299 298
278 281 283 286 286 285 286 287 288 290 292 294 295 296 296 296 296 296 296 296 296 295 295 295 295 296 295 294 293 291 293 295 296 297 297 297 299 301 301 301 301 300 299
279 281 285 287 287 287 288 289 290 291 293 295 296 297 297 296 295 295 295 295 295 295 295 295 296 296 296 295 293 292 292 294 295 297 297 296 298 300 301 301 301 301 300
Height
5910 5909 5907 5906 5904 5902 5901 5899 5897 5895 5892 5890 5887 5885 5883 5881 5879 5877 5875 5873 5871 5870 5868 5867 5866 5864 5863 5862 5860 5859 5858 5857 5855 5854 5852 5851 5850 5848 5847 5845 5843 5841 5839
5910 5908 5907 5906 5904 5902 5900 5899 5897 5894 5892 5889 5886 5883 5881 5879 5877 5875 5873 5871 5869 5867 5865 5864 5863 5861 5860 5858 5857 5855 5854 5852 5851 5849 5847 5846 5844 5843 5841 5840 5838 5836 5834
5909 5908 5906 5905 5903 5901 5900 5898 5896 5893 5891 5888 5885 5882 5880 5877 5875 5873 5871 5869 5866 5864 5862 5861 5859 5858 5856 5854 5853 5851 5850 5848 5846 5845 5843 5841 5839 5837 5835 5833 5832 5830 5827
5908 5907 5906 5904 5902 5900 5898 5897 5894 5892 5889 5886 5884 5881 5878 5876 5873 5871 5868 5866 5864 5861 5859 5857 5856 5854 5852 5850 5848 5847 5845 5843 5841 5839 5838 5836 5834 5831 5829 5827 5825 5823 5821
5907 5906 5904 5902 5901 5899 5897 5894 5892 5890 5887 5885 5882 5879 5877 5874 5871 5868 5866 5863 5861 5858 5856 5853 5851 5849 5847 5845 5843 5841 5839 5837 5836 5834 5832 5830 5828 5826 5823 5821 5819 5817 5815
5905 5903 5902 5900 5898 5896 5894 5892 5890 5887 5884 5882 5879 5877 5874 5871 5869 5866 5863 5860 5857 5854 5852 5849 5847 5845 5843 5840 5838 5836 5834 5832 5830 5828 5826 5824 5821 5819 5817 5814 5812 5810 5808
5902 5901 5899 5897 5896 5894 5891 5889 5887 5884 5882 5879 5876 5873 5871 5868 5865 5862 5859 5856 5853 5851 5848 5845 5843 5840 5838 5835 5833 5830 5828 5826 5824 5822 5819 5817 5815 5812 5810 5808 5805 5803 5801
5899 5897 5896 5894 5892 5890 5888 5885 5883 5881 5878 5875 5872 5870 5867 5864 5861 5858 5855 5852 5849 5846 5843 5840 5838 5835 5832 5830 5827 5824 5822 5819 5817 5814 5812 5810 5807 5804 5802 5800 5797 5795 5793
5894 5893 5891 5890 5888 5886 5883 5881 5879 5876 5874 5871 5868 5866 5863 5860 5857 5854 5851 5848 5844 5841 5838 5835 5832 5829 5826 5823 5821 5818 5815 5812 5809 5807 5805 5802 5800 5797 5794 5792 5790 5787 5785
5889 5887 5886 5885 5883 5881 5879 5876 5874 5871 5869 5866 5864 5861 5858 5855 5852 5849 5845 5842 5839 5836 5833 5829 5826 5823 5820 5817 5813 5810 5808 5805 5802 5800 5798 5795 5792 5790 5787 5785 5782 5780 5778
5882 5881 5880 5879 5877 5875 5873 5871 5868 5866 5863 5861 5858 5855 5852 5849 5846 5843 5839 5836 5833 5830 5827 5823 5820 5817 5813 5810 5806 5803 5800 5798 5795 5793 5791 5788 5785 5783 5780 5777 5775 5772 5769
5875 5874 5873 5872 5870 5868 5866 5864 5862 5859 5857 5854 5852 5849 5846 5843 5839 5836 5833 5829 5826 5823 5820 5816 5813 5810 5806 5803 5799 5796 5793 5791 5788 5786 5783 5781 5778 5775 5772 5769 5767 5764 5761
5868 5867 5866 5864 5863 5861 5859 5857 5854 5852 5850 5847 5844 5842 5839 5835 5832 5829 5826 5822 5819 5816 5813 5810 5806 5803 5800 5796 5793 5790 5787 5784 5781 5778 5776 5773 5771 5768 5765 5762 5759 5756 5753
5860 5859 5858 5857 5855 5854 5852 5849 5847 5844 5842 5839 5836 5834 5831 5828 5825 5821 5818 5814 5811 5808 5805 5802 5799 5796 5793 5790 5786 5783 5780 5777 5774 5771 5768 5765 5762 5759 5756 5753 5750 5747 5744
5851 5850 5849 5848 5847 5845 5843 5841 5839 5836 5833 5830 5828 5825 5822 5820 5817 5813 5809 5806 5803 5800 5797 5794 5791 5788 5785 5782 5779 5776 5772 5769 5766 5762 5759 5757 5754 5751 5748 5745 5742 5739 5736
5841 5840 5840 5839 5838 5836 5834 5833 5830 5828 5824 5821 5819 5817 5813 5811 5807 5804 5801 5797 5794 5792 5789 5786 5783 5780 5777 5774 5771 5767 5764 5761 5758 5754 5751 5748 5745 5742 5739 5736 5733 5730 5727
5831 5831 5830 5829 5828 5826 5824 5823 5820 5818 5816 5813 5810 5808 5805 5801 5798 5795 5792 5788 5785 5783 5780 5777 5774 5771 5768 5765 5762 5759 5756 5752 5749 5746 5743 5739 5736 5733 5730 5727 5724 5721 5718
5821 5820 5819 5818 5817 5816 5814 5812 5809 5808 5806 5804 5801 5798 5795 5792 5789 5786 5782 5779 5777 5774 5771 5768 5765 5762 5758 5755 5752 5750 5747 5743 5740 5737 5734 5730 5727 5724 5721 5718 5715 5712 5709
5811 5810 5809 5808 5806 5805 5803 5801 5798 5797 5795 5793 5791 5788 5785 5782 5779 5776 5773 5770 5767 5765 5762 5759 5756 5752 5749 5746 5743 5740 5737 5734 5731 5728 5725 5722 5718 5715 5712 5709 5706 5703 5700
5801 5800 5799 5797 5796 5795 5792 5790 5788 5786 5784 5781 5779 5777 5774 5772 5769 5766 5763 5760 5757 5754 5751 5749 5746 5743 5739 5736 5733 5730 5727 5724 5721 5718 5715 5712 5709 5706 5703 5700 5697 5694 5691
5790 5790 5788 5787 5785 5784 5782 5779 5777 5775 5773 5771 5769 5766 5764 5762 5759 5756 5753 5750 5747 5744 5741 5738 5735 5732 5729 5726 5723 5720 5717 5715 5712 5709 5706 5703 5700 5697 5694 5691 5688 5685 5682
5780 5779 5778 5776 5775 5773 5771 5769 5767 5765 5763 5760 5758 5756 5753 5751 5748 5746 5743 5740 5736 5734 5731 5728 5725 5722 5720 5716 5713 5710 5708 5705 5702 5699 5697 5693 5690 5688 5685 5682 5679 5676 5673
5770 5768 5768 5766 5765 5763 5761 5760 5757 5755 5753 5750 5748 5746 5743 5741 5738 5735 5732 5729 5726 5723 5721 5718 5715 5712 5709 5706 5703 5701 5698 5696 5693 5690 5687 5684 5681 5678 5675 5673 5670 5667 5664
5760 5759 5758 5756 5754 5753 5751 5750 5747 5745 5743 5740 5738 5736 5733 5730 5727 5725 5722 5719 5716 5713 5710 5707 5704 5701 5699 5696 5693 5691 5688 5686 5683 5680 5678 5675 5672 5669 5666 5663 5661 5658 5655
5750 5749 5748 5747 5745 5743 5741 5739 5738 5735 5733 5731 5728 5725 5723 5720 5717 5714 5711 5708 5705 5702 5699 5697 5694 5691 5688 5686 5683 5681 5678 5676 5673 5670 5668 5665 5663 5660 5657 5654 5652 5649 5646
5741 5740 5739 5737 5735 5733 5731 5730 5727 5725 5723 5720 5718 5715 5712 5709 5706 5703 5701 5698 5695 5692 5689 5686 5684 5681 5678 5675 5673 5671 5669 5666 5664 5661 5658 5656 5654 5651 5648 5645 5643 5640 5637